| time (UTC) | temp F | wind direction | speed MPH | gust MPH | rain 1hr in | rain 24hr in | rain mn in | humidity % | barometer mb |
| 20260504041503 | 50 | 186 | 0.0 | 2.0 | 0.00 | 0.00 | 0.00 | 48 | 1012.0 |
| 20260504041004 | 50 | 186 | 0.0 | 0.0 | 0.00 | 0.00 | 0.00 | 46 | 1012.0 |
| 20260504040503 | 50 | 186 | 0.0 | 1.0 | 0.00 | 0.00 | 0.00 | 48 | 1012.1 |
| 20260504040004 | 50 | 186 | 0.0 | 2.0 | 0.00 | 0.00 | 0.00 | 46 | 1012.0 |
| 20260504035003 | 50 | 186 | 0.0 | 2.0 | 0.00 | 0.00 | 0.00 | 46 | 1012.0 |
| 20260504034003 | 51 | 186 | 0.0 | 2.0 | 0.00 | 0.00 | 0.00 | 48 | 1011.9 |
| 20260504033504 | 51 | 186 | 0.0 | 2.0 | 0.00 | 0.00 | 0.00 | 45 | 1011.9 |
| 20260504033003 | 51 | 186 | 0.0 | 2.0 | 0.00 | 0.00 | 0.00 | 44 | 1011.9 |
| 20260504032005 | 51 | 186 | 0.0 | 2.0 | 0.00 | 0.00 | 0.00 | 45 | 1011.9 |
| 20260504031004 | 51 | 186 | 0.0 | 3.0 | 0.00 | 0.00 | 0.00 | 44 | 1011.9 |
| 20260504030505 | 50 | 186 | 1.0 | 2.0 | 0.00 | 0.00 | 0.00 | 45 | 1011.9 |
| 20260504030003 | 50 | 186 | 0.0 | 2.0 | 0.00 | 0.00 | 0.00 | 45 | 1011.9 |
| 20260504025503 | 51 | 186 | 0.0 | 2.0 | 0.00 | 0.00 | 0.00 | 46 | 1011.9 |
| 20260504025003 | 51 | 186 | 0.0 | 2.0 | 0.00 | 0.00 | 0.00 | 45 | 1011.9 |
| 20260504024503 | 50 | 186 | 1.0 | 3.0 | 0.00 | 0.00 | 0.00 | 45 | 1011.9 |
| 20260504024003 | 50 | 186 | 0.0 | 3.0 | 0.00 | 0.00 | 0.00 | 45 | 1011.9 |
| 20260504023503 | 50 | 186 | 0.0 | 0.0 | 0.00 | 0.00 | 0.00 | 45 | 1011.9 |
| 20260504023003 | 51 | 186 | 0.0 | 0.0 | 0.00 | 0.00 | 0.00 | 45 | 1011.9 |
| 20260504022503 | 51 | 186 | 0.0 | 0.0 | 0.00 | 0.00 | 0.00 | 46 | 1011.9 |
| 20260504022004 | 51 | 186 | 0.0 | 0.0 | 0.00 | 0.00 | 0.00 | 48 | 1011.9 |
| 20260504021503 | 51 | 186 | 0.0 | 2.0 | 0.00 | 0.00 | 0.00 | 49 | 1011.9 |
| 20260504021004 | 51 | 186 | 0.0 | 0.0 | 0.00 | 0.00 | 0.00 | 47 | 1011.8 |
| 20260504020004 | 52 | 187 | 0.0 | 0.0 | 0.00 | 0.00 | 0.00 | 44 | 1011.8 |
| 20260504015505 | 52 | 187 | 0.0 | 0.0 | 0.00 | 0.00 | 0.00 | 43 | 1011.8 |
| 20260504015003 | 52 | 187 | 0.0 | 0.0 | 0.00 | 0.00 | 0.00 | 43 | 1011.8 |
| 20260504014503 | 52 | 187 | 0.0 | 0.0 | 0.00 | 0.00 | 0.00 | 41 | 1011.8 |
| 20260504014004 | 53 | 187 | 0.0 | 0.0 | 0.00 | 0.00 | 0.00 | 39 | 1011.8 |
| 20260504013503 | 53 | 187 | 0.0 | 0.0 | 0.00 | 0.00 | 0.00 | 40 | 1011.7 |
| 20260504013004 | 53 | 187 | 0.0 | 0.0 | 0.00 | 0.00 | 0.00 | 39 | 1011.6 |
| 20260504012504 | 53 | 187 | 0.0 | 0.0 | 0.00 | 0.00 | 0.00 | 39 | 1011.6 |
| 20260504012004 | 53 | 188 | 0.0 | 0.0 | 0.00 | 0.00 | 0.00 | 40 | 1011.6 |
| 20260504011503 | 53 | 187 | 0.0 | 0.0 | 0.00 | 0.00 | 0.00 | 39 | 1011.5 |
| 20260504011004 | 53 | 187 | 0.0 | 0.0 | 0.00 | 0.00 | 0.00 | 40 | 1011.5 |
| 20260504010514 | 54 | 187 | 0.0 | 0.0 | 0.00 | 0.00 | 0.00 | 39 | 1011.4 |
| 20260504005004 | 54 | 188 | 0.0 | 0.0 | 0.00 | 0.00 | 0.00 | 39 | 1011.2 |
| 20260504004504 | 54 | 188 | 0.0 | 0.0 | 0.00 | 0.00 | 0.00 | 38 | 1011.1 |
| 20260504004004 | 54 | 188 | 0.0 | 0.0 | 0.00 | 0.00 | 0.00 | 37 | 1011.0 |
| 20260504003503 | 54 | 188 | 0.0 | 0.0 | 0.00 | 0.00 | 0.00 | 39 | 1011.0 |
| 20260504003003 | 54 | 188 | 0.0 | 0.0 | 0.00 | 0.00 | 0.00 | 37 | 1010.9 |
| 20260504002503 | 54 | 188 | 0.0 | 0.0 | 0.00 | 0.00 | 0.00 | 38 | 1010.8 |
| 20260504001503 | 55 | 188 | 0.0 | 0.0 | 0.00 | 0.00 | 0.00 | 38 | 1010.6 |
| 20260504000503 | 55 | 188 | 0.0 | 0.0 | 0.00 | 0.00 | 0.00 | 36 | 1010.5 |
| 20260504000004 | 55 | 188 | 0.0 | 0.0 | 0.00 | 0.00 | 0.00 | 35 | 1010.4 |
| 20260503235503 | 55 | 188 | 0.0 | 0.0 | 0.00 | 0.00 | 0.00 | 37 | 1010.4 |
| 20260503235004 | 55 | 189 | 0.0 | 0.0 | 0.00 | 0.00 | 0.00 | 35 | 1010.3 |
| 20260503234004 | 56 | 189 | 0.0 | 0.0 | 0.00 | 0.00 | 0.00 | 36 | 1010.3 |
| 20260503233003 | 56 | 188 | 0.0 | 0.0 | 0.00 | 0.00 | 0.00 | 35 | 1010.2 |
| 20260503232504 | 57 | 188 | 0.0 | 0.0 | 0.00 | 0.00 | 0.00 | 34 | 1010.1 |
| 20260503232003 | 57 | 188 | 0.0 | 0.0 | 0.00 | 0.00 | 0.00 | 32 | 1010.1 |
| 20260503231504 | 57 | 188 | 0.0 | 0.0 | 0.00 | 0.00 | 0.00 | 33 | 1010.0 |
| 20260503230504 | 58 | 189 | 1.0 | 3.0 | 0.00 | 0.00 | 0.00 | 31 | 1010.0 |
| 20260503230004 | 58 | 191 | 2.0 | 5.0 | 0.00 | 0.00 | 0.00 | 30 | 1009.8 |
| 20260503225504 | 58 | 193 | 1.0 | 3.0 | 0.00 | 0.00 | 0.00 | 32 | 1009.8 |
| 20260503225005 | 58 | 192 | 0.0 | 5.0 | 0.00 | 0.00 | 0.00 | 31 | 1009.8 |
| 20260503224503 | 58 | 190 | 1.0 | 3.0 | 0.00 | 0.00 | 0.00 | 32 | 1009.8 |
| 20260503224003 | 58 | 192 | 1.0 | 3.0 | 0.00 | 0.00 | 0.00 | 33 | 1009.8 |
| 20260503223503 | 58 | 190 | 1.0 | 3.0 | 0.00 | 0.00 | 0.00 | 32 | 1009.8 |
| 20260503222503 | 58 | 188 | 1.0 | 6.0 | 0.00 | 0.00 | 0.00 | 30 | 1009.7 |
| 20260503222003 | 59 | 191 | 1.0 | 3.0 | 0.00 | 0.00 | 0.00 | 32 | 1009.7 |
| 20260503221504 | 59 | 194 | 1.0 | 3.0 | 0.00 | 0.00 | 0.00 | 32 | 1009.6 |
| 20260503221003 | 59 | 190 | 2.0 | 5.0 | 0.00 | 0.00 | 0.00 | 30 | 1009.7 |
| 20260503220503 | 59 | 190 | 1.0 | 5.0 | 0.00 | 0.00 | 0.00 | 31 | 1009.8 |
| 20260503220004 | 59 | 190 | 2.0 | 5.0 | 0.00 | 0.00 | 0.00 | 29 | 1009.7 |
| 20260503215505 | 59 | 190 | 2.0 | 5.0 | 0.00 | 0.00 | 0.00 | 29 | 1009.6 |
| 20260503215004 | 59 | 191 | 2.0 | 6.0 | 0.00 | 0.00 | 0.00 | 29 | 1009.7 |
| 20260503214504 | 59 | 189 | 2.0 | 6.0 | 0.00 | 0.00 | 0.00 | 30 | 1009.6 |
| 20260503214004 | 59 | 191 | 2.0 | 8.0 | 0.00 | 0.00 | 0.00 | 30 | 1009.6 |
| 20260503213504 | 59 | 189 | 2.0 | 5.0 | 0.00 | 0.00 | 0.00 | 30 | 1009.6 |
| 20260503213003 | 59 | 353 | 2.0 | 7.0 | 0.00 | 0.00 | 0.00 | 30 | 1009.5 |
| 20260503212503 | 59 | 264 | 2.0 | 7.0 | 0.00 | 0.00 | 0.00 | 29 | 1009.5 |
| 20260503212003 | 59 | 21 | 4.0 | 12.0 | 0.00 | 0.00 | 0.00 | 28 | 1009.4 |
| 20260503211504 | 59 | 334 | 1.0 | 7.0 | 0.00 | 0.00 | 0.00 | 30 | 1009.5 |
| 20260503211005 | 59 | 335 | 3.0 | 9.0 | 0.00 | 0.00 | 0.00 | 27 | 1009.5 |
| 20260503210504 | 59 | 338 | 4.0 | 10.0 | 0.00 | 0.00 | 0.00 | 28 | 1009.4 |
| 20260503210003 | 59 | 340 | 2.0 | 9.0 | 0.00 | 0.00 | 0.00 | 31 | 1009.4 |
| 20260503204503 | 59 | 300 | 3.0 | 8.0 | 0.00 | 0.00 | 0.00 | 28 | 1009.4 |
| 20260503204003 | 59 | 315 | 3.0 | 8.0 | 0.00 | 0.00 | 0.00 | 31 | 1009.3 |
| 20260503203504 | 59 | 333 | 2.0 | 7.0 | 0.00 | 0.00 | 0.00 | 30 | 1009.4 |
| 20260503203004 | 60 | 273 | 3.0 | 8.0 | 0.00 | 0.00 | 0.00 | 31 | 1009.4 |
| 20260503202504 | 60 | 286 | 4.0 | 7.0 | 0.00 | 0.00 | 0.00 | 29 | 1009.4 |
| 20260503202004 | 60 | 305 | 3.0 | 12.0 | 0.00 | 0.00 | 0.00 | 32 | 1009.5 |
| 20260503201505 | 60 | 314 | 3.0 | 9.0 | 0.00 | 0.00 | 0.00 | 30 | 1009.5 |
| 20260503200504 | 60 | 271 | 4.0 | 9.0 | 0.00 | 0.00 | 0.00 | 31 | 1009.6 |
| 20260503200004 | 60 | 311 | 2.0 | 3.0 | 0.00 | 0.00 | 0.00 | 33 | 1009.7 |
| 20260503195503 | 60 | 289 | 4.0 | 12.0 | 0.00 | 0.00 | 0.00 | 33 | 1009.7 |
| 20260503195003 | 60 | 282 | 4.0 | 8.0 | 0.00 | 0.00 | 0.00 | 31 | 1009.7 |
| 20260503194004 | 60 | 336 | 3.0 | 7.0 | 0.00 | 0.00 | 0.00 | 30 | 1009.8 |
| 20260503193503 | 60 | 300 | 6.0 | 12.0 | 0.00 | 0.00 | 0.00 | 32 | 1009.8 |
| 20260503193004 | 59 | 283 | 3.0 | 8.0 | 0.00 | 0.00 | 0.00 | 33 | 1009.8 |
| 20260503192503 | 58 | 294 | 3.0 | 9.0 | 0.00 | 0.00 | 0.00 | 33 | 1009.9 |
| 20260503192004 | 58 | 291 | 4.0 | 9.0 | 0.00 | 0.00 | 0.00 | 33 | 1010.0 |
| 20260503190504 | 59 | 191 | 5.0 | 14.0 | 0.00 | 0.00 | 0.00 | 33 | 1010.1 |
| 20260503190003 | 59 | 189 | 4.0 | 9.0 | 0.00 | 0.00 | 0.00 | 32 | 1010.0 |
| 20260503184504 | 59 | 194 | 3.0 | 9.0 | 0.00 | 0.00 | 0.00 | 32 | 1010.2 |
| 20260503184004 | 59 | 191 | 3.0 | 8.0 | 0.00 | 0.00 | 0.00 | 33 | 1010.1 |
| 20260503183504 | 59 | 191 | 5.0 | 9.0 | 0.00 | 0.00 | 0.00 | 34 | 1010.1 |
| 20260503182503 | 58 | 192 | 4.0 | 8.0 | 0.00 | 0.00 | 0.00 | 33 | 1010.1 |
| 20260503182004 | 59 | 194 | 3.0 | 8.0 | 0.00 | 0.00 | 0.00 | 32 | 1010.0 |
| 20260503181504 | 59 | 189 | 5.0 | 9.0 | 0.00 | 0.00 | 0.00 | 32 | 1009.9 |
| 20260503180504 | 59 | 191 | 3.0 | 8.0 | 0.00 | 0.00 | 0.00 | 32 | 1009.8 |
| 20260503180004 | 59 | 192 | 6.0 | 12.0 | 0.00 | 0.00 | 0.00 | 30 | 1010.0 |
| 20260503175504 | 59 | 192 | 5.0 | 9.0 | 0.00 | 0.00 | 0.00 | 31 | 1009.9 |
| 20260503175003 | 59 | 192 | 4.0 | 9.0 | 0.00 | 0.00 | 0.00 | 30 | 1009.9 |
| 20260503174503 | 58 | 195 | 3.0 | 9.0 | 0.00 | 0.00 | 0.00 | 31 | 1009.8 |
| 20260503174003 | 58 | 190 | 3.0 | 8.0 | 0.00 | 0.00 | 0.00 | 33 | 1009.9 |
| 20260503173504 | 58 | 190 | 3.0 | 8.0 | 0.00 | 0.00 | 0.00 | 34 | 1010.0 |
| 20260503173003 | 57 | 194 | 3.0 | 7.0 | 0.00 | 0.00 | 0.00 | 35 | 1010.0 |
| 20260503172505 | 57 | 206 | 3.0 | 8.0 | 0.00 | 0.00 | 0.00 | 37 | 1010.0 |
| 20260503172005 | 56 | 194 | 2.0 | 5.0 | 0.00 | 0.00 | 0.00 | 35 | 1010.1 |
| 20260503171503 | 56 | 190 | 3.0 | 7.0 | 0.00 | 0.00 | 0.00 | 36 | 1010.1 |
| 20260503171003 | 56 | 193 | 2.0 | 8.0 | 0.00 | 0.00 | 0.00 | 36 | 1010.1 |
| 20260503170504 | 56 | 193 | 3.0 | 12.0 | 0.00 | 0.00 | 0.00 | 36 | 1010.1 |
| 20260503151005 | 55 | 189 | 3.0 | 6.0 | 0.00 | 0.00 | 0.00 | 42 | 1010.5 |
| 20260503150504 | 55 | 190 | 2.0 | 7.0 | 0.00 | 0.00 | 0.00 | 43 | 1010.5 |
| 20260503131003 | 49 | 297 | 2.0 | 8.0 | 0.00 | 0.00 | 0.00 | 54 | 1010.4 |
| 20260503130502 | 48 | 279 | 3.0 | 7.0 | 0.00 | 0.00 | 0.00 | 54 | 1010.4 |
| 20260503090503 | 46 | 0 | 0.0 | 2.0 | 0.00 | 0.02 | 0.00 | 56 | 1009.4 |
| 20260503081502 | 47 | 4 | 0.0 | 2.0 | 0.00 | 0.02 | 0.00 | 54 | 1009.7 |
| 20260503081002 | 47 | 17 | 0.0 | 2.0 | 0.00 | 0.02 | 0.00 | 54 | 1009.7 |
| 20260503080502 | 47 | 355 | 0.0 | 3.0 | 0.00 | 0.02 | 0.00 | 53 | 1009.7 |
| 20260503072002 | 48 | 13 | 0.0 | 3.0 | 0.00 | 0.02 | 0.00 | 52 | 1009.7 |
| 20260503071503 | 48 | 25 | 1.0 | 5.0 | 0.00 | 0.02 | 0.00 | 52 | 1009.7 |
| 20260503071002 | 49 | 13 | 1.0 | 3.0 | 0.00 | 0.02 | 0.00 | 52 | 1009.4 |
| 20260503070502 | 49 | 7 | 1.0 | 3.0 | 0.00 | 0.02 | 0.00 | 52 | 1009.6 |
| 20260503055003 | 50 | 12 | 0.0 | 6.0 | 0.00 | 0.02 | 0.00 | 54 | 1009.9 |
| 20260503054502 | 50 | 353 | 0.0 | 3.0 | 0.00 | 0.02 | 0.00 | 56 | 1009.9 |
| 20260503054003 | 50 | 3 | 0.0 | 2.0 | 0.00 | 0.02 | 0.00 | 57 | 1010.0 |
| 20260503053004 | 50 | 347 | 0.0 | 2.0 | 0.00 | 0.02 | 0.00 | 56 | 1010.2 |
| 20260503052502 | 50 | 0 | 1.0 | 3.0 | 0.00 | 0.02 | 0.00 | 56 | 1010.2 |
| 20260503052003 | 50 | 4 | 0.0 | 2.0 | 0.00 | 0.02 | 0.00 | 57 | 1010.3 |
| 20260503051502 | 50 | 3 | 1.0 | 2.0 | 0.00 | 0.02 | 0.00 | 56 | 1010.4 |
| 20260503051002 | 50 | 349 | 0.0 | 2.0 | 0.00 | 0.02 | 0.00 | 57 | 1010.5 |
| 20260503050502 | 50 | 349 | 0.0 | 2.0 | 0.00 | 0.02 | 0.00 | 57 | 1010.4 |
| 20260503050002 | 50 | 355 | 0.0 | 2.0 | 0.00 | 0.02 | 0.00 | 56 | 1010.5 |
| 20260503045502 | 50 | 6 | 0.0 | 1.0 | 0.00 | 0.02 | 0.00 | 57 | 1010.5 |
| 20260503045002 | 50 | 22 | 0.0 | 2.0 | 0.00 | 0.02 | 0.00 | 58 | 1010.6 |
| 20260503044502 | 50 | 5 | 0.0 | 1.0 | 0.00 | 0.02 | 0.00 | 56 | 1010.6 |
| 20260503043502 | 50 | 4 | 1.0 | 3.0 | 0.00 | 0.02 | 0.00 | 57 | 1010.3 |
| 20260503043002 | 50 | 9 | 0.0 | 3.0 | 0.00 | 0.02 | 0.00 | 59 | 1010.6 |
| 20260503042003 | 50 | 344 | 0.0 | 3.0 | 0.00 | 0.02 | 0.00 | 60 | 1010.7 |